Overview Statistics Trail Chart Weather Telemetry Raw packets
 

This is the latest recevied weather packets stored in our database for station/object s59zo-6. If no packets are shown the sender has not sent any weather packets the latest 10 day(s).

<< 65 66 67 68 69 70 71 >>
Time Temp. Humidity Pressure Rain* Wind** Luminosity Snow
1788228005 20.56° C 70% 1018.8 hPa 0 mm - - -
1788227704 20.56° C 68% 1018.9 hPa 0 mm - - -
1788227404 21.11° C 68% 1018.9 hPa 0 mm - - -
1788227103 21.11° C 68% 1019.1 hPa 0 mm - - -
1788226804 21.11° C 68% 1019 hPa 0 mm - - -
1788226503 21.11° C 67% 1018.9 hPa 0 mm - - -
1788226204 21.11° C 66% 1018.8 hPa 0 mm - - -
1788225911 21.11° C 66% 1018.9 hPa 0 mm - - -
1788225604 21.11° C 65% 1018.9 hPa 0 mm - - -
1788225303 20.56° C 66% 1018.8 hPa 0 mm - - -
1788225003 20.56° C 68% 1018.6 hPa 0 mm - - -
1788224703 20.56° C 68% 1018.8 hPa 0 mm - - -
1788224404 21.11° C 67% 1018.6 hPa 0 mm - - -
1788224103 21.11° C 67% 1018.5 hPa 0 mm - - -
1788223804 21.11° C 66% 1018.6 hPa 0 mm - - -
1788223504 21.67° C 65% 1018.6 hPa 0 mm - - -
1788223204 21.67° C 62% 1018.8 hPa 0 mm - - -
1788222904 21.67° C 61% 1018.6 hPa 0 mm - - -
1788222604 21.67° C 61% 1018.5 hPa 0 mm - - -
1788222303 21.11° C 63% 1018.4 hPa 0 mm - - -
1788222004 21.11° C 66% 1018.4 hPa 0 mm - - -
1788221703 20.56° C 70% 1018.6 hPa 0 mm - - -
1788221404 20.56° C 70% 1018.7 hPa 0 mm - - -
1788221103 20.56° C 71% 1018.5 hPa 0 mm - - -
1788220804 20.56° C 71% 1018.3 hPa 0 mm - - -

* Rain latest hour (hover to see other rain measurements)
** Current wind speed in m/s (hover to see current wind gust speed)